Regional Weather Roundup
Issued by NWS Grand Forks, ND

Home | Current Version | Previous Version | Graphics & Text | Print | Product List | Glossary On
Versions: 1 2 3 4 5 6 7 8 9 10 11 12 13 14 15 16 17 18 19 20 21 22 23 24 25 26 27 28 29 30 31 32 33 34 35 36 37 38 39 40 41 42 43 44 45 46 47 48 49 50
000
ASUS43 KFGF 140410
RWRFGF
PRAIRIE TO PINES  WEATHER ROUNDUP
NATIONAL WEATHER SERVICE EASTERN NORTH DAKOTA/GRAND FORKS ND
1000 PM CST SAT FEB 13 2016

 **SATELLITE DATA USED TO AUGMENT SKY COVER AT AUTOMATED STATIONS**
 *****  WEATHER ACROSS EASTERN NORTH DAKOTA  *****

CITY           SKY/WX    TMP DP  RH WIND       PRES   REMARKS
GRAND FORKS    CLOUDY    14   3  61 S20       30.09F WCI  -3
GRAND FRKS AFB CLOUDY    13   3  62 S18G28    30.07F WCI  -4
DEVILS LAKE    LGT SNOW   9   5  84 SE23      29.93F FOG     WCI -11
FARGO          CLOUDY    14   0  53 S17G33    30.11F WCI  -3
WAHPETON ARPT  CLOUDY    12   1  62 S22G30    30.15F WCI  -7
$$

 ***** WEATHER ACROSS CENTRAL AND WESTERN NORTH DAKOTA  *****

CITY           SKY/WX    TMP DP  RH WIND       PRES   REMARKS
BISMARCK       CLOUDY    19  12  74 S15       29.87F WCI   5
MINOT          LGT SNOW  18  11  74 SE7       29.80F WCI   9
JAMESTOWN      SNOW      12   8  84 SE20      29.95F VSB 1/2 WCI  -6
MINOT AFB      LGT SNOW  16  16 100 CALM      29.81F FOG
GARRISON         N/A     17  15  92 S12       29.79F WCI   4
WILLISTON      CLOUDY    30  27  88 NW21G28   29.80R WCI  17
DICKINSON      CLOUDY    34  32  92 W15       29.75R WCI  24
HETTINGER      CLOUDY    30  27  88 W7        29.81S WCI  23
$$

 *****  OTHER AIRPORT OBSERVATIONS IN OUR AREA  *****

CITY           SKY/WX    TMP DP  RH WIND       PRES   REMARKS
WALHALLA       FAIR      10   5  79 SE15      30.04F WCI  -6
GRAFTON AIRPOR NOT AVBL
VALLEY CITY AR NOT AVBL
CANDO          NOT AVBL
CAVALIER APRT  NOT AVBL
GWINNER        CLOUDY    14   7  73 SE17      30.08S WCI  -3
SHEYENNE NWR     N/A     11   2  67 S16       29.95S WCI  -6
ROLLA          LGT SNOW   7   5  92 S14G21    29.88F WCI -10
 ***** THE ABOVE OBSERVATIONS ARE NON NWS ARE NOT QUALITY
       CONTROLLED AND MAY MIS-REPORT RAIN FOR SNOW...
$$

  *****  WEATHER ACROSS NORTHERN MINNESOTA  *****

CITY           SKY/WX    TMP DP  RH WIND       PRES   REMARKS
FLAG ISLAND    CLOUDY     0 -15  50 SE9G18    30.18F WCI -16
WARROAD        MOCLDY     5  -9  51 SE12      30.16F WCI -11
ROSEAU         CLOUDY     9  -6  52 SE15      30.14F WCI  -8
HALLOCK        CLOUDY    12   1  62 S20       30.09F WCI  -6
THF RVR FALLS  CLOUDY    10  -2  56 SE15      30.12F WCI  -6
BAUDETTE       CLOUDY     0 -16  46 SE10      30.18F WCI -16
WASKISH        CLOUDY     3  -9  55 SE7       30.19F WCI  -9
CROOKSTON      CLOUDY    12   1  62 S17G24    30.14F WCI  -5
GREENBUSH NDAW   N/A      9   0  66 SE16        N/A  WCI  -9
$$
  *****  WEATHER ACROSS CENTRAL AND WEST MINNESOTA  *****

CITY           SKY/WX    TMP DP  RH WIND       PRES   REMARKS
FOSSTON        FLURRIES   9  -6  52 SE7       30.13F WCI  -3
BEMIDJI        CLOUDY     3  -9  55 SE10      30.16F WCI -12
PARK RAPIDS    CLOUDY     8  -7  50 SE15      30.16F WCI  -9
ELBOW LAKE     CLOUDY    10   1  67 E17G24    30.16F WCI  -8
WADENA         CLOUDY     7  -4  61 SE14      30.17F WCI -10
DETROIT LAKES  CLOUDY    10   1  67 SE17      30.13F WCI  -7
MOORHEAD       CLOUDY    12   0  57 S24G31    30.13S WCI  -8
FERGUS FALLS   CLOUDY    10   0  61 S17       30.19F WCI  -7
MORRIS MN      CLOUDY    10   1  67 SE24      30.16S WCI -10
STAPLES        CLOUDY     7  -8  51 SE8       30.20F WCI  -6
$$
  *****  WEATHER ELSEWHERE ACROSS MINNESOTA  *****

CITY           SKY/WX    TMP DP  RH WIND       PRES   REMARKS
DULUTH         CLOUDY    -2 -14  56 SE6       30.27F WCI -14
INTRNTL FALLS  CLOUDY    -9 -16  71 E7        30.24F WCI -24
ELY            CLOUDY   -17 -20  83 CALM      30.27F
CLOQUET        CLOUDY     0 -17  46 SE3       30.29F
WHEATON        CLOUDY    12   5  73 SE21G28   30.17S WCI  -6
BRAINERD       CLOUDY     2 -10  57 SE7       30.24F WCI -11
HIBBING        CLOUDY    -9 -17  68 SE3       30.26F
ALEXANDRIA     CLOUDY     8  -2  63 SE15      30.18F WCI  -9
SAINT CLOUD    CLOUDY     8  -4  58 SE14      30.28F WCI  -8
MINNEAPOLIS    MOCLDY     7  -7  52 SE10      30.35F WCI  -8
$$

  *****  WEATHER ACROSS SOUTH DAKOTA  *****

CITY           SKY/WX    TMP DP  RH WIND       PRES   REMARKS
SIOUX FALLS    CLOUDY    13   6  74 SE16      30.10F WCI  -3
BROOKINGS      LGT SNOW  10   6  84 SE22G28   30.06F FOG     WCI -10
WATERTOWN      LGT SNOW  11   6  81 SE18      30.04R WCI  -7
HURON          CLOUDY    14   7  73 S18G31    30.07R WCI  -3
SISSETON         N/A     11   4  73 S17       30.12S WCI  -6
ABERDEEN       LGT SNOW  15  10  80 S22G30    30.03F WCI  -3
MITCHELL       CLOUDY    14   8  77 SE21G33   30.00F WCI  -4
PIERRE         CLOUDY    25  24  96 SE10      29.85R WCI  15
MOBRIDGE       SNOW      20  17  88 SE12      29.84F VSB 1/2 WCI   8
RAPID CITY     CLOUDY    38  32  79 NW16      29.86R
$$

  *****  SOME WEATHER IN NEARBY STATES *****

CITY           SKY/WX    TMP DP  RH WIND       PRES   REMARKS
GLASGOW MT     CLEAR     32  28  85 NW5       29.87S
GREAT FALLS MT CLOUDY    37  20  50 SW13      29.97F
CHEYENNE WY    CLOUDY    31  27  85 N17       30.06R WCI  19
SCOTTSBLUFF NE PTCLDY    36  29  75 W13       30.02R
OMAHA NE       CLOUDY    19   3  49 SE17      30.22F WCI   4
DES MOINES IA  LGT SNOW  14   9  80 SE10      30.33F WCI   1
DAVENPORT IA   CLOUDY    17  -3  41 SE12      30.43F WCI   4
CHICAGO IL     MOCLDY    11  -4  51 N6        30.47F WCI   1
EAU CLAIRE WI  CLOUDY    -6 -12  75 CALM      30.39F
LA CROSSE WI   CLOUDY     3  -9  57 SE7       30.42F WCI  -9
$$

  *****  SOME NATIONAL WEATHER *****

CITY           SKY/WX    TMP DP  RH WIND       PRES   REMARKS
LA GUARDIA NY  PTCLDY     8  -9  45 NW26G37   30.30F WCI -14
RALEIGH NC     CLEAR     23  -1  35 VRB5      30.44S WCI  17
ATLANTA GA     CLEAR     32   6  33 N10       30.35F WCI  24
NEW ORLEANS LA CLEAR     50  37  61 SE5       30.33F
OKLAHOMA CITY  PTCLDY    48  35  60 S17G25    30.01F
ALBUQUERQUE NM CLOUDY    55  17  22 NW12      30.12R
SALT LAKE CITY FOG       29  28  96 CALM      30.34R VSB 1/8
LOS ANGELES CA MOCLDY    56  54  93 W5        30.06S FOG
BOISE ID       CLOUDY    43  29  57 SE6       30.25F
SEATTLE WA     CLOUDY    44  42  93 SE5       30.11R FOG
$$

*** WEATHER ACROSS MANITOBA...SASKATCHEWAN AND ONTARIO ***
                ***ONTARIO***

CITY           SKY/WX    TMP DP  RH WIND       PRES   REMARKS
GERALDTON      PTCLDY   -22 -27  76 SW2       30.32F
THUNDER BAY    CLEAR    -17 -20  83 W6        30.41R WCI -31
SIOUX LOOKOUT  CLEAR    -11 -17  77 SE5       30.25F WCI -23
TORONTO        CLEAR     -9 -22  54 N13       30.46R WCI -30
BIG TROUT LK   CLEAR    -11 -18  70 S6        30.23F WCI -25
PICKLE LAKE    NOT AVBL
DRYDEN         CLEAR     -4 -11  71 SE10      30.22F WCI -21
KENORA         CLEAR     -2 -13  60 S12G17    30.18F WCI -20
$$
                *** MANITOBA***

CITY           SKY/WX    TMP DP  RH WIND       PRES   REMARKS
BRANDON        LGT SNOW   9   5  85 S13       29.91F WCI  -7
DAUPHIN        CLOUDY     7   3  85 SE15      29.92F WCI -11
ISLAND LAKE    PTCLDY    -4 -11  71 SE9       30.11F WCI -20
PILOT MOUND      N/A      9   5  85 S22         N/A  WCI -11
THE PAS        CLOUDY     7  -2  66 S12G18    29.84F WCI  -9
THOMPSON       PTCLDY     0  -8  71 S6        29.90F WCI -12
WINNIPEG       CLOUDY     9  -6  52 SE18G28   30.07F WCI -10
LYNN LAKE      CLOUDY     9   1  72 S9        29.69F WCI  -5
CHURCHILL      MOCLDY     1  -8  66 S17G26    29.90F WCI -19
$$
                ***SASKATCHEWAN***

CITY           SKY/WX    TMP DP  RH WIND       PRES   REMARKS
ESTEVAN        NOT AVBL
KINDERSLEY     PTCLDY    21  19  93 SW6       29.79S WCI  14
LLOYDMINSTER   PTCLDY    27  23  86 W12       29.70F WCI  16
PRINCE ALBERT  FLURRIES  14  10  85 SW5       29.73F WCI   6
REGINA         FLURRIES  23  21  93 NW15G22   29.77F WCI  10
YORKTON        FLURRIES  10   7  85 SE9       29.80F WCI  -2
N. BATTLEFORD  CLEAR     18  18 100 SW7       29.75F WCI   8
LA RONGE       NOT AVBL
SASKATOON      FLURRIES  21  19  93 SW9       29.77F WCI  11
SWIFT CURRENT  CLEAR     28  27  93 W16       29.79S WCI  17
$$
NOTE: THESE ARE AUTOMATED STATIONS WITH LIMITED QUALITY CONTROL
      "FAIR" INDICATES FEW OR NO CLOUDS BELOW 12,000 FEET WITH NO
      SIGNIFICANT WEATHER AND/OR OBSTRUCTIONS TO VISIBILITY.
      SKY/WX - SKY CONDITION AND SIGNIFICANT WEATHER.
      TMP - AIR TEMPERATURE.    DP   - DEWPOINT TEMPERATURE.
      RH  - RELATIVE HUMIDITY.  PRES - PRESSURE.
      HX  - HEAT INDEX.         WCI  - WIND CHILL INDEX.
$



USA.gov is the U.S. government's official web portal to all federal, state and local government web resources and services.